[[{"header":{"parameterUnit":"m.s-1","parameterCategory":1,"la1":30.2991,"la2":30.254,"lo1":-89.0895,"lo2":-89.0444,"dy":0.0017,"dx":0.0017,"nx":28,"ny":28,"refTime":"2024-04-13T03:00:00:Z","depth":0,"parameterNumber":2,"parameterNumberName":"U-component_of_WINDS"},"data":[0,0,0,0,0,0,0,0,0,0,0,0,0,0,0,0,0,0,0,0,0,0,0,0,0,0,0,0,0,0,0,0,0,0,0,0,0,0,0,0,0,0,0,0,0,0,0,0,0,0,0,0,0,0,0,0,0,0,1.5153,1.5154,0,1.5247,1.5248,1.5249,1.5248,1.5247,1.5246,1.5244,1.5342,1.5346,1.535,0,0,0,0,0,0,0,0,0,0,0,0,0,1.4973,1.4976,1.5153,1.5154,1.5156,1.5247,1.5248,1.525,1.5248,1.5247,1.5245,1.5244,1.5341,1.5345,1.535,0,0,0,0,0,0,0,0,0,0,0,0,0,1.5058,1.4977,1.5153,1.5166,1.5168,1.5247,1.5248,1.525,1.5249,1.5247,1.5245,1.5243,1.5339,1.5345,1.5351,1.5423,0,0,1.5368,1.537,0,0,0,0,0,0,0,0,1.5053,1.5064,1.5163,1.5165,1.5168,1.5234,1.5221,1.5308,1.5249,1.5218,1.5244,1.5242,1.5308,1.5316,1.5338,1.5428,1.5432,1.5368,1.5372,1.5374,1.5376,0,0,0,0,0,0,0,1.5047,1.506,1.519,1.5164,1.5167,1.5167,1.5177,1.5237,1.5272,1.5221,1.5221,1.5232,1.5309,1.5332,1.534,1.5433,1.5368,1.5373,1.5377,1.5379,1.5586,1.5588,0,0,0,0,0,0,1.5038,1.5055,1.5187,1.5193,1.5104,1.5172,1.5183,1.5215,1.5272,1.5279,1.5233,1.5231,1.5324,1.5333,1.5343,1.543,1.5374,1.5379,1.5383,1.5584,1.5586,1.5588,0,0,0,0,0,0,1.5034,1.505,1.5184,1.5124,1.5141,1.5177,1.5212,1.5217,1.5241,1.5281,1.5288,1.5251,1.5322,1.5336,1.5403,1.5434,1.5382,1.5387,1.5581,1.5584,1.5587,1.5606,0,0,0,0,0,0,1.5029,1.5049,1.5077,1.5125,1.5144,1.5241,1.5214,1.5221,1.525,1.5249,1.5299,1.5306,1.5322,1.5394,1.5408,1.5441,1.5392,1.5578,1.5582,1.5586,1.5603,1.561,1.5615,0,0,0,0,0,1.5023,1.5079,1.5078,1.5094,1.518,1.5243,1.5254,1.5271,1.5253,1.5281,1.5307,1.5304,1.5429,1.5401,1.5417,1.5452,1.5576,1.5581,1.5586,1.56,1.5608,1.5615,0,0,0,0,0,0,1.5034,1.5086,1.5085,1.5159,1.5196,1.5243,1.5279,1.5279,1.5324,1.532,1.534,1.5351,1.5418,1.5442,1.5411,1.5524,1.55,1.5508,1.5506,1.5514,1.552,1.5512,1.5396,0,0,0,0,0,1.5045,1.5092,1.5134,1.5195,1.5214,1.5243,1.5271,1.5281,1.5321,1.5337,1.5368,1.5407,1.5455,1.5486,1.5532,1.5607,1.5617,1.5638,1.5644,1.5649,1.5656,1.5695,1.5704,1.5604,1.5604,1.5604,0,0,1.5069,1.5102,1.5131,1.5198,1.5229,1.5276,1.5257,1.5308,1.5344,1.5345,1.541,1.5434,1.5479,1.5549,1.5582,1.5571,1.5686,1.5655,1.5659,1.5663,1.5701,1.571,1.5719,1.5607,1.5606,1.5606,0,0,1.5135,1.5166,1.5219,1.5249,1.5295,1.5314,1.5327,1.5373,1.5388,1.5453,1.5455,1.5498,1.558,1.5611,1.5638,1.5715,1.5713,1.573,1.5761,1.5799,1.5807,1.5814,1.584,1.5849,1.5736,1.5736,1.5736,0,1.5158,1.523,1.5246,1.5297,1.5326,1.5329,1.5382,1.5411,1.547,1.549,1.5477,1.5579,1.561,1.5687,1.5705,1.5728,1.5742,1.5723,1.5805,1.5812,1.5819,1.5844,1.5853,1.5738,1.5737,1.5737,1.5737,0,1.5255,1.5304,1.5342,1.5397,1.5431,1.5483,1.5507,1.5539,1.5545,1.5565,1.5631,1.5668,1.572,1.574,1.5748,1.5818,1.5809,1.5801,1.5777,1.583,1.5853,1.5863,1.574,1.5739,1.5739,1.5738,0,0,1.5331,1.5394,1.5407,1.5431,1.5482,1.552,1.5572,1.5623,1.5649,1.569,1.5733,1.5802,1.5793,1.5824,1.5835,1.5869,1.5925,1.5856,1.5857,1.5866,1.6002,1.6007,1.6018,1.5925,1.5927,1.5928,1.5998,0,1.5401,1.5492,1.5508,1.5588,1.5633,1.5636,1.5681,1.5717,1.5737,1.5778,1.58,1.5848,1.5834,1.5852,1.5886,1.5911,1.5952,1.5906,1.5964,1.5966,1.5951,1.6031,1.6037,1.6101,1.6007,1.6009,1.601,0,1.5495,1.5536,1.562,1.5663,1.5682,1.5723,1.5769,1.5809,1.5849,1.5861,1.5894,1.5901,1.5955,1.5929,1.6003,1.5971,1.5996,1.6012,1.6015,1.6019,1.599,1.6036,1.6122,1.6131,1.6025,1.6024,1.6023,0,1.554,1.5617,1.5676,1.5697,1.5749,1.5777,1.58,1.5838,1.5867,1.5908,1.5927,1.5975,1.6,1.6037,1.6056,1.6036,1.6127,1.6104,1.6138,1.6138,1.6156,1.6155,1.6245,1.6175,1.6175,1.6175,1.6174,0,1.5615,1.5666,1.5697,1.5733,1.579,1.5808,1.5863,1.5886,1.5919,1.596,1.5966,1.6004,1.6028,1.607,1.6085,1.6143,1.6155,1.6166,1.6169,1.6164,1.6162,1.618,1.6175,1.6177,1.6177,1.6176,1.6176,0,1.5674,1.5697,1.5762,1.5805,1.5817,1.5856,1.5893,1.5929,1.5948,1.6,1.6013,1.6044,1.6093,1.6116,1.6177,1.6187,1.6252,1.6253,1.6238,1.6239,1.6271,1.6267,1.6374,1.6389,1.631,1.6311,1.6312,0,1.572,1.5759,1.5806,1.5833,1.5856,1.5901,1.593,1.5949,1.5979,1.6027,1.6056,1.6105,1.6145,1.6223,1.6251,1.6298,1.6299,1.6333,1.6306,1.6299,1.6297,1.6294,1.6297,1.6338,1.6339,1.6339,1.634,0,1.5799,1.5807,1.5849,1.5894,1.5928,1.5965,1.6001,1.6023,1.6048,1.6082,1.6131,1.6162,1.6224,1.6272,1.632,1.6344,1.6346,1.6348,1.6358,1.6353,1.6342,1.6346,1.625,1.6346,1.6345,1.6345,1.6344,1.6344,1.5851,1.5885,1.5923,1.5968,1.5997,1.6031,1.6065,1.6089,1.613,1.6181,1.619,1.6242,1.6281,1.6345,1.637,1.6411,1.6403,1.6418,1.6422,1.6425,1.6425,1.6336,1.6421,1.642,1.642,1.642,1.642,0,1.5928,1.5952,1.5994,1.6044,1.6079,1.6078,1.6117,1.6147,1.6193,1.6228,1.6267,1.6323,1.637,1.6401,1.6448,1.6475,1.6477,1.6486,1.6484,1.6489,1.6431,1.6417,1.6484,1.6484,1.6484,1.6484,1.6484,1.6484,1.5972,1.6029,1.6042,1.6113,1.6137,1.6187,1.621,1.624,1.6268,1.633,1.6368,1.6388,1.6422,1.6471,1.6513,1.6521,1.6538,1.6547,1.6555,1.65,1.6493,1.6487,1.6473,1.6551,1.6551,1.6609,1.661,1.661]},{"header":{"parameterUnit":"m.s-1","parameterCategory":1,"la1":30.2991,"la2":30.254,"lo1":-89.0895,"lo2":-89.0444,"dy":0.0017,"dx":0.0017,"nx":28,"ny":28,"refTime":"2024-04-13T03:00:00:Z","depth":0,"parameterNumber":3,"parameterNumberName":"V-component_of_WINDS"},"data":[0,0,0,0,0,0,0,0,0,0,0,0,0,0,0,0,0,0,0,0,0,0,0,0,0,0,0,0,0,0,0,0,0,0,0,0,0,0,0,0,0,0,0,0,0,0,0,0,0,0,0,0,0,0,0,0,0,0,3.3888,3.3889,0,3.398,3.3981,3.3982,3.3953,3.3951,3.3949,3.3947,3.4036,3.404,3.4044,0,0,0,0,0,0,0,0,0,0,0,0,0,3.368,3.3684,3.3888,3.3889,3.389,3.398,3.3981,3.3983,3.3953,3.3951,3.3948,3.3946,3.4034,3.4039,3.4044,0,0,0,0,0,0,0,0,0,0,0,0,0,3.3771,3.3685,3.3888,3.3887,3.3887,3.398,3.3981,3.3983,3.3954,3.3951,3.3948,3.3945,3.4033,3.4039,3.4045,3.4142,0,0,3.4064,3.4067,0,0,0,0,0,0,0,0,3.3766,3.3779,3.3886,3.3887,3.3888,3.3952,3.394,3.4036,3.3954,3.3928,3.3947,3.3944,3.401,3.4018,3.4041,3.4146,3.415,3.4065,3.4068,3.4071,3.4073,0,0,0,0,0,0,0,3.376,3.3774,3.3924,3.3887,3.3889,3.3879,3.3889,3.3958,3.3984,3.393,3.3928,3.394,3.401,3.4035,3.4043,3.4152,3.4064,3.407,3.4074,3.4076,3.434,3.4343,0,0,0,0,0,0,3.3753,3.3769,3.3921,3.3927,3.3819,3.3885,3.3896,3.3934,3.3983,3.3988,3.3943,3.3938,3.4026,3.4036,3.4046,3.4163,3.4071,3.4077,3.4081,3.4336,3.434,3.4344,0,0,0,0,0,0,3.3749,3.3767,3.3918,3.3848,3.3866,3.3892,3.3935,3.3938,3.3963,3.3993,3.3996,3.3964,3.4024,3.4037,3.4119,3.4165,3.408,3.4085,3.4333,3.4338,3.4342,3.4397,0,0,0,0,0,0,3.3743,3.3766,3.3805,3.3849,3.387,3.3991,3.3938,3.3942,3.3975,3.397,3.4014,3.4018,3.4023,3.411,3.4125,3.4172,3.409,3.4328,3.4335,3.4341,3.4391,3.4403,3.4413,0,0,0,0,0,3.3736,3.3815,3.3807,3.3825,3.392,3.3994,3.4005,3.4011,3.3979,3.4017,3.4036,3.4017,3.4158,3.4118,3.4135,3.4185,3.4326,3.4333,3.434,3.4386,3.4401,3.4413,0,0,0,0,0,0,3.3774,3.3821,3.3812,3.3909,3.3948,3.3988,3.4037,3.4026,3.4073,3.4067,3.4069,3.4079,3.4163,3.4182,3.4137,3.4281,3.4237,3.4248,3.4266,3.428,3.4291,3.4284,3.4096,0,0,0,0,0,3.3794,3.3852,3.3889,3.3971,3.3991,3.4011,3.4043,3.4044,3.4083,3.4099,3.4124,3.4161,3.4213,3.4248,3.4298,3.4394,3.4402,3.4436,3.4448,3.4457,3.4466,3.4517,3.4532,3.4368,3.4368,3.4367,0,0,3.3835,3.3868,3.3904,3.3979,3.401,3.4068,3.4025,3.4088,3.4131,3.4108,3.4187,3.4206,3.4247,3.4337,3.4377,3.4355,3.4513,3.4466,3.4473,3.4477,3.4526,3.4541,3.4555,3.4373,3.4372,3.4371,0,0,3.394,3.3972,3.4043,3.4074,3.4121,3.4133,3.415,3.4193,3.4206,3.4285,3.4269,3.4318,3.4409,3.4439,3.4466,3.4582,3.4566,3.4598,3.4656,3.4706,3.4719,3.473,3.477,3.4785,3.4607,3.4608,3.4608,0,3.3985,3.4074,3.408,3.4145,3.4178,3.4162,3.4233,3.4262,3.4322,3.4344,3.4319,3.4433,3.4459,3.4555,3.4583,3.4606,3.4624,3.4593,3.4717,3.4728,3.4739,3.4777,3.4793,3.4611,3.4611,3.461,3.461,0,3.4126,3.4188,3.4239,3.43,3.4338,3.4406,3.442,3.4458,3.4455,3.4469,3.4549,3.4581,3.4637,3.466,3.4657,3.4754,3.4739,3.4716,3.4671,3.4758,3.4794,3.4809,3.4616,3.4615,3.4614,3.4613,0,0,3.4257,3.432,3.4339,3.4366,3.4416,3.4463,3.4529,3.4585,3.4617,3.4659,3.4713,3.479,3.4769,3.4799,3.48,3.4843,3.4932,3.4814,3.4815,3.4834,3.5039,3.5056,3.5074,3.4922,3.4925,3.4927,3.5036,0,3.4365,3.4484,3.4491,3.4597,3.4654,3.4639,3.4696,3.4732,3.4747,3.4795,3.4811,3.4865,3.4833,3.4852,3.4894,3.4912,3.4973,3.4904,3.497,3.4972,3.496,3.5093,3.5111,3.5212,3.505,3.5052,3.5054,0,3.4508,3.4556,3.4668,3.471,3.4734,3.4786,3.4837,3.4885,3.4924,3.4932,3.4966,3.496,3.5026,3.4979,3.5068,3.5021,3.5048,3.5061,3.5065,3.5071,3.5018,3.5101,3.5245,3.5259,3.5076,3.5075,3.5073,0,3.4591,3.4683,3.4763,3.4786,3.4837,3.4874,3.4896,3.4933,3.4966,3.5011,3.5032,3.5083,3.5111,3.5149,3.5156,3.5122,3.5245,3.5199,3.5251,3.5251,3.5277,3.5276,3.5427,3.5296,3.5296,3.5296,3.5296,0,3.4711,3.478,3.4801,3.4849,3.4926,3.4932,3.5007,3.5027,3.506,3.511,3.51,3.5147,3.5154,3.5202,3.5208,3.528,3.5292,3.5299,3.53,3.53,3.5299,3.5317,3.531,3.53,3.5299,3.5298,3.5298,0,3.4816,3.4834,3.4919,3.4961,3.4973,3.5027,3.5062,3.5107,3.5121,3.5185,3.52,3.5221,3.5278,3.5289,3.5355,3.5358,3.5444,3.5438,3.5431,3.543,3.5482,3.5477,3.5649,3.5672,3.5528,3.5529,3.553,0,3.4892,3.4945,3.4993,3.5027,3.5052,3.5107,3.5141,3.5149,3.5185,3.5234,3.5273,3.5328,3.5373,3.5463,3.5483,3.5533,3.5527,3.5584,3.5534,3.5533,3.5527,3.5523,3.5528,3.5593,3.5595,3.5596,3.5597,0,3.5023,3.5028,3.508,3.5134,3.5175,3.5218,3.5258,3.5286,3.5299,3.5339,3.5397,3.5432,3.55,3.5555,3.5605,3.5625,3.5613,3.5613,3.5628,3.5628,3.5622,3.5625,3.5457,3.5609,3.5608,3.5607,3.5606,3.5606,3.5115,3.5161,3.5202,3.5259,3.529,3.5328,3.5373,3.5393,3.5443,3.55,3.5501,3.5565,3.5601,3.5667,3.5691,3.5739,3.5721,3.5742,3.5748,3.5753,3.5757,3.5615,3.5748,3.5748,3.5748,3.5748,3.5747,0,3.5244,3.527,3.5323,3.538,3.5425,3.5412,3.5455,3.5492,3.5549,3.5585,3.563,3.5696,3.5749,3.5773,3.5825,3.5859,3.5854,3.5872,3.5869,3.5874,3.5771,3.5753,3.5874,3.5874,3.5874,3.5874,3.5874,3.5874,3.5317,3.5395,3.5405,3.5498,3.5522,3.5586,3.5612,3.5646,3.5675,3.575,3.5795,3.5811,3.5842,3.5896,3.5943,3.5948,3.5967,3.5987,3.599,3.5894,3.5881,3.5868,3.5851,3.5992,3.5992,3.6088,3.6089,3.609]}]]